When you browse on this site, cookies collect data to enhance your experience and personalize the content and advertising you see.
Visit our Privacy Policy to learn more. By continuing to use the site, you agree to this use of cookies and data.
  • In Spain
  • List of Countries
  • For 7 days
  • Water Temperature
  • Weather Map
  • Weather Widgets
  • user-avatar
    Login

    Hourly Weather Siva

    Today, 26 February, Wednesday

    Time Temperature Precipitation Wind Pressure Humidity
    00:00 +16°C° 0 mm 2 mps 760 mmHg 50%
    01:00 +16°C° 0 mm 2 mps 760 mmHg 51%
    02:00 +15°C° 0 mm 2 mps 759 mmHg 52%
    03:00 +15°C° 0 mm 2 mps 759 mmHg 54%
    04:00 +15°C° 0 mm 2 mps 759 mmHg 55%
    05:00 +14°C° 0 mm 2 mps 759 mmHg 57%
    06:00 +15°C° 0 mm 2 mps 759 mmHg 56%
    07:00 +15°C° 0 mm 2 mps 759 mmHg 55%
    08:00 +14°C° 0 mm 3 mps 760 mmHg 55%
    09:00 +17°C° 0 mm 3 mps 760 mmHg 50%
    10:00 +18°C° 0 mm 3 mps 760 mmHg 44%
    11:00 +20°C° 0 mm 3 mps 760 mmHg 39%
    12:00 +21°C° 0 mm 3 mps 760 mmHg 35%
    13:00 +22°C° 0 mm 4 mps 759 mmHg 32%
    14:00 +23°C° 0 mm 4 mps 758 mmHg 27%
    15:00 +23°C° 0 mm 4 mps 758 mmHg 26%
    16:00 +24°C° 0 mm 3 mps 758 mmHg 25%
    17:00 +25°C° 0 mm 3 mps 757 mmHg 24%
    18:00 +23°C° 0 mm 2 mps 758 mmHg 26%
    19:00 +22°C° 0 mm 1 mps 758 mmHg 29%
    20:00 +21°C° 0 mm 1 mps 758 mmHg 31%
    21:00 +21°C° 0 mm 1 mps 758 mmHg 31%
    22:00 +20°C° 0 mm 2 mps 758 mmHg 31%
    23:00 +20°C° 0 mm 2 mps 758 mmHg 31%

    Tomorrow, 27 February, Thursday

    Time Temperature Precipitation Wind Pressure Humidity
    00:00 +19°C° 0 mm 2 mps 758 mmHg 31%
    01:00 +19°C° 0 mm 2 mps 758 mmHg 32%
    02:00 +18°C° 0 mm 2 mps 758 mmHg 33%
    03:00 +18°C° 0 mm 3 mps 758 mmHg 33%
    04:00 +18°C° 0 mm 3 mps 758 mmHg 34%
    05:00 +18°C° 0 mm 3 mps 757 mmHg 35%
    06:00 +18°C° 0 mm 3 mps 758 mmHg 34%
    07:00 +18°C° 0 mm 3 mps 758 mmHg 33%
    08:00 +18°C° 0 mm 4 mps 758 mmHg 32%
    09:00 +20°C° 0 mm 4 mps 758 mmHg 28%
    10:00 +21°C° 0 mm 4 mps 759 mmHg 24%
    11:00 +23°C° 0 mm 4 mps 759 mmHg 19%
    12:00 +25°C° 0 mm 4 mps 758 mmHg 18%
    13:00 +26°C° 0 mm 4 mps 758 mmHg 17%
    14:00 +27°C° 0 mm 4 mps 757 mmHg 15%
    15:00 +27°C° 0 mm 3 mps 757 mmHg 15%
    16:00 +27°C° 0 mm 3 mps 757 mmHg 16%
    17:00 +27°C° 0 mm 2 mps 756 mmHg 16%
    18:00 +26°C° 0 mm 2 mps 757 mmHg 18%
    19:00 +24°C° 0 mm 2 mps 757 mmHg 21%
    20:00 +23°C° 0 mm 2 mps 757 mmHg 24%
    21:00 +22°C° 0 mm 1 mps 757 mmHg 25%
    22:00 +21°C° 0 mm 1 mps 757 mmHg 27%
    23:00 +18°C° 0 mm 0 mps 758 mmHg 29%

    Day after tomorrow, 28 February, Friday

    Time Temperature Precipitation Wind Pressure Humidity
    00:00 +20°C° 0 mm 1 mps 758 mmHg 30%
    01:00 +20°C° 0 mm 1 mps 758 mmHg 30%
    02:00 +20°C° 0 mm 1 mps 758 mmHg 31%
    03:00 +18°C° 0 mm 2 mps 758 mmHg 37%
    04:00 +17°C° 0 mm 3 mps 758 mmHg 42%
    05:00 +15°C° 0 mm 4 mps 757 mmHg 48%
    06:00 +15°C° 0 mm 4 mps 758 mmHg 56%
    07:00 +16°C° 0 mm 3 mps 758 mmHg 63%
    08:00 +14°C° 0 mm 3 mps 759 mmHg 70%
    09:00 +17°C° 0 mm 3 mps 759 mmHg 62%
    10:00 +18°C° 0 mm 3 mps 759 mmHg 53%
    11:00 +20°C° 0 mm 3 mps 759 mmHg 44%
    12:00 +21°C° 0 mm 3 mps 759 mmHg 38%
    13:00 +22°C° 0 mm 4 mps 759 mmHg 33%
    14:00 +25°C° 0 mm 5 mps 758 mmHg 27%
    15:00 +23°C° 0 mm 5 mps 758 mmHg 27%
    16:00 +23°C° 0 mm 5 mps 758 mmHg 27%
    17:00 +23°C° 0 mm 6 mps 758 mmHg 27%
    18:00 +22°C° 0 mm 5 mps 758 mmHg 29%
    19:00 +21°C° 0 mm 4 mps 759 mmHg 31%
    20:00 +20°C° 0 mm 3 mps 759 mmHg 34%
    21:00 +20°C° 0 mm 4 mps 760 mmHg 35%
    22:00 +19°C° 0 mm 4 mps 760 mmHg 36%
    23:00 +18°C° 0 mm 4 mps 761 mmHg 37%

    29 February, Saturday

    Time Temperature Precipitation Wind Pressure Humidity
    00:00 +18°C° 0 mm 4 mps 760 mmHg 42%
    01:00 +17°C° 0 mm 3 mps 760 mmHg 46%
    02:00 +16°C° 0 mm 3 mps 760 mmHg 51%
    03:00 +14°C° 0 mm 3 mps 760 mmHg 57%
    04:00 +14°C° 0 mm 3 mps 760 mmHg 64%
    05:00 +13°C° 0 mm 3 mps 760 mmHg 70%
    06:00 +14°C° 0 mm 2 mps 760 mmHg 69%
    07:00 +14°C° 0 mm 2 mps 761 mmHg 68%
    08:00 +14°C° 0 mm 2 mps 761 mmHg 67%
    09:00 +15°C° 0 mm 2 mps 761 mmHg 61%
    10:00 +16°C° 0 mm 3 mps 762 mmHg 56%
    11:00 +17°C° 0 mm 3 mps 762 mmHg 50%
    12:00 +18°C° 0 mm 4 mps 761 mmHg 46%
    13:00 +19°C° 0 mm 4 mps 761 mmHg 42%
    14:00 +20°C° 0 mm 4 mps 760 mmHg 38%
    15:00 +20°C° 0 mm 4 mps 760 mmHg 38%
    16:00 +21°C° 0 mm 4 mps 760 mmHg 38%
    17:00 +21°C° 0 mm 4 mps 760 mmHg 37%
    18:00 +20°C° 0 mm 3 mps 760 mmHg 39%
    19:00 +20°C° 0 mm 3 mps 760 mmHg 41%
    20:00 +19°C° 0 mm 2 mps 761 mmHg 42%
    21:00 +18°C° 0 mm 2 mps 761 mmHg 44%
    22:00 +18°C° 0 mm 2 mps 761 mmHg 46%
    23:00 +18°C° 0 mm 2 mps 761 mmHg 49%

    1 March, Sunday

    Time Temperature Precipitation Wind Pressure Humidity
    00:00 +17°C° 0 mm 2 mps 761 mmHg 53%
    01:00 +16°C° 0 mm 2 mps 761 mmHg 58%
    02:00 +16°C° 0 mm 2 mps 760 mmHg 62%
    03:00 +15°C° 0 mm 2 mps 760 mmHg 65%
    04:00 +15°C° 0 mm 2 mps 760 mmHg 67%
    05:00 +14°C° 0 mm 1 mps 760 mmHg 70%
    06:00 +15°C° 0 mm 1 mps 761 mmHg 69%
    07:00 +15°C° 0 mm 1 mps 761 mmHg 67%
    08:00 +15°C° 0 mm 1 mps 762 mmHg 66%
    09:00 +16°C° 0 mm 1 mps 762 mmHg 61%
    10:00 +18°C° 0 mm 1 mps 762 mmHg 56%
    11:00 +19°C° 0 mm 1 mps 762 mmHg 50%
    12:00 +20°C° 0 mm 1 mps 761 mmHg 47%
    13:00 +21°C° 0 mm 1 mps 761 mmHg 43%
    14:00 +22°C° 0 mm 1 mps 760 mmHg 39%
    15:00 +22°C° 0 mm 1 mps 760 mmHg 38%
    16:00 +23°C° 0 mm 2 mps 760 mmHg 37%
    17:00 +23°C° 0 mm 2 mps 759 mmHg 35%
    18:00 +21°C° 0 mm 2 mps 760 mmHg 37%
    19:00 +20°C° 0 mm 2 mps 760 mmHg 39%
    20:00 +21°C° 0 mm 1 mps 760 mmHg 41%
    21:00 +20°C° 0 mm 1 mps 760 mmHg 43%
    22:00 +20°C° 0 mm 1 mps 760 mmHg 44%
    23:00 +19°C° 0 mm 1 mps 761 mmHg 46%

    2 March, Monday

    Time Temperature Precipitation Wind Pressure Humidity
    00:00 +19°C° 0 mm 1 mps 760 mmHg 47%
    01:00 +18°C° 0 mm 1 mps 760 mmHg 49%
    02:00 +16°C° 0 mm 1 mps 760 mmHg 50%
    03:00 +16°C° 0 mm 1 mps 760 mmHg 51%
    04:00 +16°C° 0 mm 2 mps 760 mmHg 52%
    05:00 +16°C° 0 mm 2 mps 759 mmHg 52%
    06:00 +16°C° 0 mm 2 mps 760 mmHg 53%
    07:00 +16°C° 0 mm 2 mps 760 mmHg 53%
    08:00 +16°C° 0 mm 3 mps 760 mmHg 54%
    09:00 +17°C° 0 mm 2 mps 760 mmHg 49%
    10:00 +19°C° 0 mm 2 mps 760 mmHg 44%
    11:00 +20°C° 0 mm 2 mps 760 mmHg 39%
    12:00 +22°C° 0 mm 1 mps 760 mmHg 37%
    13:00 +23°C° 0 mm 1 mps 759 mmHg 34%
    14:00 +21°C° 0 mm 0 mps 758 mmHg 32%
    15:00 +22°C° 0 mm 0 mps 758 mmHg 31%
    16:00 +24°C° 0 mm 1 mps 758 mmHg 30%
    17:00 +24°C° 0 mm 1 mps 758 mmHg 29%
    18:00 +23°C° 0 mm 1 mps 758 mmHg 30%
    19:00 +22°C° 0 mm 1 mps 758 mmHg 32%
    20:00 +22°C° 0 mm 1 mps 758 mmHg 34%
    21:00 +21°C° 0 mm 1 mps 758 mmHg 36%
    22:00 +20°C° 0 mm 1 mps 758 mmHg 37%
    23:00 +18°C° 0 mm 0 mps 758 mmHg 38%
    Show more